DW2516 Weather Reports


Display with metric or nautical units.
time (UTC)temp
F
wind
direction
speed
MPH
gust
MPH
rain 1hr
in
rain 24hr
in
rain mn
in
humidity
%
barometer
mb
20260505204537 62 0.0 0.0 0.00 0.00 0.00 62 1004.4
20260505203042 62 0.0 0.0 0.00 0.00 0.00 62 1004.4
20260505201546 63 0.0 0.0 0.00 0.00 0.00 61 1004.4
20260505200033 63 0.0 0.0 0.00 0.00 0.00 61 1004.4
20260505194533 64 0.0 0.0 0.00 0.00 0.00 60 1004.4
20260505193043 64 0.0 0.0 0.00 0.00 0.00 59 1004.2
20260505191530 64 0.0 0.0 0.00 0.00 0.00 59 1004.4
20260505190035 64 0.0 0.0 0.00 0.00 0.00 58 1004.3
20260505184529 65 0.0 0.0 0.00 0.00 0.00 57 1004.4
20260505183044 66 0.0 0.0 0.00 0.00 0.00 56 1004.3
20260505181529 66 0.0 0.0 0.00 0.00 0.00 55 1004.4
20260505180034 67 0.0 0.0 0.00 0.00 0.00 53 1004.5
20260505174531 67 0.0 0.0 0.00 0.00 0.00 51 1004.6
20260505173035 67 0.0 0.0 0.00 0.00 0.00 49 1004.5
20260505171530 68 0.0 0.0 0.00 0.00 0.00 49 1004.4
20260505170024 68 0.0 0.0 0.00 0.00 0.00 47 1004.5
20260505164533 69 0.0 0.0 0.00 0.00 0.00 48 1004.6
20260505163024 69 0.0 0.0 0.00 0.00 0.00 48 1004.7
20260505161523 70 0.0 0.0 0.00 0.00 0.00 47 1004.8
20260505153027 74 0.0 0.0 0.00 0.00 0.00 44 1004.8
20260505151521 75 0.0 0.0 0.00 0.00 0.00 42 1004.7
20260505124507 79 0.0 0.0 0.00 0.00 0.00 36 1005.4
20260505123003 78 0.0 0.0 0.00 0.00 0.00 42 1005.5
20260505121600 77 0.0 0.0 0.00 0.00 0.00 43 1005.8
20260505120057 76 0.0 0.0 0.00 0.00 0.00 43 1006.1
20260505114601 75 0.0 0.0 0.00 0.00 0.00 43 1006.2
20260505113042 74 0.0 0.0 0.00 0.00 0.00 43 1006.5
20260505111538 74 0.0 0.0 0.00 0.00 0.00 43 1006.6
20260505101537 73 0.0 0.0 0.00 0.00 0.00 44 1007.0
20260505100033 73 0.0 0.0 0.00 0.00 0.00 44 1007.1
20260505094529 73 0.0 0.0 0.00 0.00 0.00 47 1007.2
20260505093029 73 0.0 0.0 0.00 0.00 0.00 46 1007.3
20260505091532 70 0.0 0.0 0.00 0.00 0.00 50 1007.5
20260505090036 68 0.0 0.0 0.00 0.00 0.00 52 1007.7
20260505084515 68 0.0 0.0 0.00 0.00 0.00 54 1007.8
20260505083011 67 0.0 0.0 0.00 0.00 0.00 55 1007.7
20260505081507 66 0.0 0.0 0.00 0.00 0.00 56 1007.7
20260505080006 66 0.0 0.0 0.00 0.00 0.00 55 1007.7
20260505074503 65 0.0 0.0 0.00 0.00 0.00 56 1007.8
20260505073059 64 0.0 0.0 0.00 0.00 0.00 58 1008.0
20260505071556 63 0.0 0.0 0.00 0.00 0.00 58 1008.1
20260505070054 62 0.0 0.0 0.00 0.00 0.00 59 1008.0
20260505064547 61 0.0 0.0 0.00 0.00 0.00 60 1008.2
20260505063046 59 0.0 0.0 0.00 0.00 0.00 62 1008.1
20260505061543 58 0.0 0.0 0.00 0.00 0.00 63 1008.1
20260505060042 57 0.0 0.0 0.00 0.00 0.00 63 1008.2
20260505054540 57 0.0 0.0 0.00 0.00 0.00 62 1008.0
20260505053039 57 0.0 0.0 0.00 0.00 0.00 63 1008.2
20260505051538 56 0.0 0.0 0.00 0.00 0.00 62 1008.1
20260505050106 56 0.0 0.0 0.00 0.00 0.00 62 1008.0
20260505041545 56 0.0 0.0 0.00 0.00 0.00 62 1007.9
20260505040027 56 0.0 0.0 0.00 0.00 0.00 62 1008.1
20260505034523 56 0.0 0.0 0.00 0.00 0.00 62 1008.0
20260505033018 56 0.0 0.0 0.00 0.00 0.00 60 1008.1
20260505031518 57 0.0 0.0 0.00 0.00 0.00 59 1008.1
20260505030011 57 0.0 0.0 0.00 0.00 0.00 58 1008.1
20260505024508 57 0.0 0.0 0.00 0.00 0.00 57 1008.2
20260505023005 58 0.0 0.0 0.00 0.00 0.00 56 1008.3
20260505021507 59 0.0 0.0 0.00 0.00 0.00 54 1008.5
20260505020055 59 0.0 0.0 0.00 0.00 0.00 54 1008.4
20260505014606 59 0.0 0.0 0.00 0.00 0.00 53 1008.5
20260505013052 59 0.0 0.0 0.00 0.00 0.00 53 1008.6
20260505011546 60 0.0 0.0 0.00 0.00 0.00 52 1008.8
20260505010044 60 0.0 0.0 0.00 0.00 0.00 51 1008.8
20260505004545 61 0.0 0.0 0.00 0.00 0.00 51 1008.9
20260505003040 61 0.0 0.0 0.00 0.00 0.00 50 1009.1
20260505001542 61 0.0 0.0 0.00 0.00 0.00 50 1009.1
20260505000043 61 0.0 0.0 0.00 0.00 0.00 50 1009.3
20260504234543 62 0.0 0.0 0.00 0.00 0.00 49 1009.4
20260504233033 62 0.0 0.0 0.00 0.00 0.00 49 1009.7
20260504231530 63 0.0 0.0 0.00 0.00 0.00 48 1009.7
20260504230029 63 0.0 0.0 0.00 0.00 0.00 48 1009.7
20260504224528 63 0.0 0.0 0.00 0.00 0.00 47 1009.8
20260504223024 64 0.0 0.0 0.00 0.00 0.00 47 1010.1
20260504221526 64 0.0 0.0 0.00 0.00 0.00 47 1010.2
20260504220021 64 0.0 0.0 0.00 0.00 0.00 47 1010.3
20260504214520 64 0.0 0.0 0.00 0.00 0.00 46 1010.4
20260504213007 65 0.0 0.0 0.00 0.00 0.00 46 1010.4
20260504211542 65 0.0 0.0 0.00 0.00 0.00 45 1010.5
20260504210042 66 0.0 0.0 0.00 0.00 0.00 45 1010.5